Regional Weather Roundup
Issued by NWS

Home | Current Version | Previous Version | Graphics & Text | Print | Product List | Glossary On
Versions: 1 2 3 4 5 6 7 8 9 10 11 12 13 14 15 16 17 18 19 20 21 22 23 24 25 26 27 28 29 30 31 32 33 34 35 36 37 38 39 40 41 42 43 44 45 46 47 48 49 50
000
ASUS45 KCYS 221010
RWRWY

WYOMING REGIONAL WEATHER ROUNDUP
NATIONAL WEATHER SERVICE CHEYENNE WY
400 AM MDT SAT JUL 22 2017

NOTE:  "FAIR" INDICATES FEW OR NO CLOUDS BELOW 12,000 FEET
WITH NO SIGNIFICANT WEATHER AND/OR OBSTRUCTIONS TO VISIBILITY.

WYZ001-221100-
YELLOWSTONE NATIONAL PARK

CITY           SKY/WX    TMP DP  RH WIND       PRES   REMARKS
LK YELLOWSTONE   N/A     38  35  89 NW3       30.38S
W YELLOWSTONE  NOT AVBL

$$
WYZ002>013-054>058-071-098>099-221100-
NORTHERN WYOMING

CITY           SKY/WX    TMP DP  RH WIND       PRES   REMARKS
JACKSON        FAIR      45  36  70 N5        30.30R
CODY           FAIR      67  28  23 NW5       30.19S
GREYBULL       FAIR      66  32  28 W9        30.06R
WORLAND        FAIR      67  35  30 N5        30.08R
SHERIDAN       FAIR      62  40  44 W7        30.10R
BUFFALO        FAIR      65  36  34 NW10      30.15S
GILLETTE       FAIR      56  39  53 CALM      30.08R
HULETT         FAIR      61  37  41 CALM      30.09S
NEWCASTLE      FAIR      64  43  45 S5        30.07S

$$
WYZ014>020-022>026-101>103-221100-
CENTRAL WYOMING

CITY           SKY/WX    TMP DP  RH WIND       PRES   REMARKS
BIG PINEY      FAIR      44  36  73 NE8       30.30F
PINEDALE       FAIR      41  36  81 W8        30.33S
DUBOIS         FAIR      46  28  49 W12       30.31S
LANDER         FAIR      63  29  27 VRB5      30.20S
RIVERTON       FAIR      61  30  31 NW15      30.17R
CASPER         FAIR      64  49  57 SW12      30.14R
DOUGLAS        FAIR      60  52  74 S3        30.11S

$$
WYZ021-027>030-104>119-221100-
SOUTHERN WYOMING

CITY           SKY/WX    TMP DP  RH WIND       PRES   REMARKS
EVANSTON       FAIR      56  41  57 NW6       30.31R
KEMMERER         N/A     54  32  43 N8        30.33R
FORT BRIDGER   FAIR      61  35  37 W7        30.32S
ROCK SPRINGS   FAIR      60  49  66 CALM      30.27S
RAWLINS        FAIR      55  47  74 NE3       30.27F
SARATOGA       FAIR      52  52 100 CALM      30.31R
LARAMIE        FAIR      51  48  89 S3        30.29R
CHEYENNE       FAIR      59  53  80 W6        30.19F
TORRINGTON     FAIR      62  58  86 NE8       30.07S
PINE BLUFFS    FAIR      59  55  88 W8        30.13F

$$



USA.gov is the U.S. government's official web portal to all federal, state and local government web resources and services.